Lexington Weather

Lexington, Massachusetts, USA

53°F
9/29/2022 3:40am 
  • Lexington Conditions: Clear
  • Temperature: 52.9°F / 11.6°CColder 1.1°F than last hour.
  • Dew Point: 48.6°FDecreased 0.7°Fsince last hour.
  • Relative Humidity: 85%Increased 1.0% since last hour.
  • Wind: Calm, 10-min avg: Calm, gust: None
  • Barometer: 30.19 in Steady
  • Visibility: 10 miles
  • Rain Today: 0.00 in
  •   

Regional Weather Roundup
for Boston, MA

        
000
ASUS41 KBOX 250310
RWRBOX

REGIONAL WEATHER ROUNDUP
NATIONAL WEATHER SERVICE BOSTON/NORTON MA
1100 PM EDT SAT SEP 24 2022

NOTE:  "FAIR" INDICATES FEW OR NO CLOUDS BELOW 12,000 FEET WITH NO 
SIGNIFICANT WEATHER AND/OR OBSTRUCTIONS TO VISIBILITY.

MAZALL-250400-
EASTERN MASSACHUSETTS
  
CITY           SKY/WX    TMP DP  RH WIND       PRES   REMARKS
BOSTON         PTCLDY    57  44  62 SW8       29.86R                  
BEVERLY        CLEAR     52  42  69 CALM      29.84S                  
LAWRENCE       CLEAR     51  43  74 CALM      29.87R                  
BEDFORD        CLEAR     49  44  83 CALM      29.85R                  
NORWOOD        CLEAR     46  44  93 CALM      29.87S                  
MARSHFIELD     CLEAR     48  45  87 W5        29.86S                  
PLYMOUTH       CLEAR     48  45  89 CALM      29.87S                  
TAUNTON          N/A    N/A N/A N/A MISG      29.87S                  
NEW BEDFORD    CLEAR     47  46  97 CALM      29.87S                  
$$

MAZALL-250400-
CAPE COD AND THE ISLANDS
  
CITY           SKY/WX    TMP DP  RH WIND       PRES   REMARKS
FALMOUTH       CLEAR     48  45  87 NW3       29.87S                  
HYANNIS        CLEAR     49  44  83 CALM      29.87R                  
CHATHAM        CLEAR     54  43  66 W3        29.88R                  
PROVINCETOWN   CLEAR     57  49  74 SW8       29.87R                  
NANTUCKET      CLEAR     59  50  72 W7        29.88R                  
MARTHAS VNYRD  CLEAR     46  43  89 CALM      29.88R                  
$$
 
MAZALL-250400-
CENTRAL AND WESTERN MASSACHUSETTS
  
CITY           SKY/WX    TMP DP  RH WIND       PRES   REMARKS
WORCESTER      CLEAR     51  44  77 W6        29.87S                  
FITCHBURG      CLEAR     46  42  86 CALM      29.87R                  
ORANGE         CLEAR     45  43  93 CALM      29.87S                  
SPRINGFIELD    PTCLDY    47  45  92 CALM      29.85R                  
WESTFIELD      CLEAR     46  44  93 S3        29.88R                  
NORTH ADAMS    CLEAR     48  46  93 W5        29.88R                  
PITTSFIELD     CLEAR     46  43  89 CALM      29.87R                  
$$
 
RIZALL-250400-
RHODE ISLAND
  
CITY           SKY/WX    TMP DP  RH WIND       PRES   REMARKS
PROVIDENCE     PTCLDY    53  45  74 CALM      29.88S                  
NEWPORT        CLEAR     49  46  90 CALM      29.88R                  
BLOCK ISLAND   CLEAR     58  46  64 W5        29.90R                  
SMITHFIELD     CLEAR     49  46  90 SW5       29.88S                  
WESTERLY       CLEAR     50  46  86 CALM      29.89R                  
$$
 
CTZALL-250400-
CONNECTICUT
  
CITY           SKY/WX    TMP DP  RH WIND       PRES   REMARKS
BRADLEY INTL   PTCLDY    50  46  86 W3        29.88R                  
HARTFORD       CLEAR     54  49  83 CALM      29.89R                  
BRIDGEPORT     CLEAR     57  47  69 CALM      29.89R                  
DANBURY        CLEAR     51  47  86 CALM      29.90S                  
GROTON         CLEAR     53  48  83 NE5       29.88S                  
NEW HAVEN      CLEAR     53  47  79 CALM      29.89R                  
CHESTER        FAIR      50  48  93 CALM      29.89R                  
MERIDEN        CLEAR     48  44  86 CALM      29.89R                  
WILLIMANTIC    CLEAR     47  46  97 CALM      29.89R                  
OXFORD         CLEAR     48  45  89 CALM      29.90R                  
$$

MEZ002-015-021-024-NHZ003-005-008-011-012-014-VTZ005-008-250400-
NORTHERN NEW ENGLAND
  
CITY           SKY/WX    TMP DP  RH WIND       PRES   REMARKS
PORTLAND ME    CLEAR     48  42  80 NW6       29.81S                  
BANGOR ME      CLEAR     53  43  68 SW5       29.74R                  
CONCORD NH     CLEAR     43  41  93 MISG      29.85R                  
MANCHESTER NH  CLEAR     49  44  83 CALM      29.84R                  
NASHUA NH      CLEAR     49  48  97 NW3       29.85S                  
PORTSMOUTH NH  CLEAR     51  42  72 SW6       29.83R                  
JAFFREY NH     CLEAR     49  45  86 S3        29.87R                  
KEENE NH       CLEAR     45  45 100 CALM        N/A                   
BURLINGTON VT  PTCLDY    49  45  86 SE5       29.84S                  
MT. WASHINGTON FOG       34  34 100 NW53        N/A  VSB 1/16WCI  17  
$$

NYZ052-076-250400-
EASTERN NEW YORK
  
CITY           SKY/WX    TMP DP  RH WIND       PRES   REMARKS
ALBANY         PTCLDY    53  45  74 CALM      29.88R                  
NEW YORK CITY  PTCLDY    66  40  38 W8        29.90R                  
$$
 
ANZALL-250400-
MARINE OBSERVATIONS
  
STATION/POSITION TIME  TEMP    WIND        PRES    VSBY  WAVE
                       AIR SEA DIR/SP/G                  HT/PER
                 (UTC) (F)     (DEG/KT/KT) (MB)    (MI)  (FT/S)
BOSTON BUOY      0250      61  240/ 10/ 12 1011.2R         1/14
BUZZARDS BAY     0200   63     300/ 14/ 15 1012.1R
NANTUCKET SOUND  0250   65 67  290/ 12/ 16 1011.4R         1/ 3
MASS BAY-STELLWA 0104   62 61  250/  6/ 10 1009.7R  1 7/8  1/ 3
ISLE OF SHOALS   0200   59     260/ 10/ 12 1009.4R
S OF BLOCK IS    0156      67                N/A           4/12
$$

......................KEY.........................
  SKY/WX - SKY CONDITION/PRESENT WEATHER
  TMP    - TEMPERATURE IN FAHRENHEIT
  DWPT   - DEWPOINT IN FAHRENHEIT
  RH     - RELATIVE HUMIDITY IN PERCENT
  WIND   - DIRECTION AND SPEED IN MPH
  PRES   - MEAN SEA LEVEL PRESSURE IN INCHES OF HG
  WCI    - WIND CHILL INDEX
  VSB    - VISIBILITY IN MILES
  HX     - HEAT INDEX
  TC     - TEMPERATURE IN CELSIUS
  VRB    - VARIABLE WIND DIRECTION
  N/A    - NOT AVAILABLE
  
      

Other recent Regional Weather Roundups

Thu Sep 29, 3:10am

Thu Sep 29, 2:10am

Thu Sep 29, 1:10am

Thu Sep 29, 12:10am

Wed Sep 28, 11:10pm

Wed Sep 28, 10:10pm

Wed Sep 28, 9:10pm

Wed Sep 28, 8:10pm

Wed Sep 28, 7:10pm

Wed Sep 28, 6:10pm

Wed Sep 28, 5:10pm

Wed Sep 28, 4:10pm

Wed Sep 28, 3:10pm

Wed Sep 28, 2:10pm

Wed Sep 28, 1:10pm

Wed Sep 28, 12:10pm

Wed Sep 28, 11:10am

Wed Sep 28, 10:10am

Wed Sep 28, 9:10am

Wed Sep 28, 8:10am

Wed Sep 28, 7:10am

Wed Sep 28, 6:10am

Wed Sep 28, 5:10am

Wed Sep 28, 4:10am

Wed Sep 28, 3:10am

Wed Sep 28, 2:10am

Wed Sep 28, 1:10am

Wed Sep 28, 12:10am

Tue Sep 27, 11:10pm

Tue Sep 27, 10:10pm

Tue Sep 27, 9:10pm

Tue Sep 27, 8:10pm

Tue Sep 27, 7:10pm

Tue Sep 27, 6:10pm

Tue Sep 27, 5:10pm

Tue Sep 27, 4:10pm

Tue Sep 27, 3:10pm

Tue Sep 27, 2:10pm

Tue Sep 27, 1:10pm

Tue Sep 27, 12:10pm

Tue Sep 27, 11:10am

Tue Sep 27, 10:10am

Tue Sep 27, 9:10am

Tue Sep 27, 8:10am

Tue Sep 27, 7:10am

Tue Sep 27, 6:10am

Tue Sep 27, 5:10am

Tue Sep 27, 4:10am

Tue Sep 27, 3:10am

Tue Sep 27, 2:10am

Tue Sep 27, 1:10am

Tue Sep 27, 12:10am

Mon Sep 26, 11:10pm

Mon Sep 26, 10:10pm

Mon Sep 26, 9:10pm

Mon Sep 26, 8:10pm

Mon Sep 26, 7:10pm

Mon Sep 26, 6:10pm

Mon Sep 26, 5:10pm

Mon Sep 26, 4:10pm

Mon Sep 26, 3:10pm

Mon Sep 26, 2:10pm

Mon Sep 26, 1:10pm

Mon Sep 26, 12:10pm

Mon Sep 26, 11:10am

Mon Sep 26, 10:10am

Mon Sep 26, 9:10am

Mon Sep 26, 8:10am

Mon Sep 26, 7:10am

Mon Sep 26, 6:10am

Mon Sep 26, 5:10am

Mon Sep 26, 4:10am

Mon Sep 26, 3:10am

Mon Sep 26, 2:10am

Mon Sep 26, 1:10am

Mon Sep 26, 12:10am

Sun Sep 25, 11:10pm

Sun Sep 25, 10:10pm

Sun Sep 25, 9:10pm

Sun Sep 25, 8:10pm

Sun Sep 25, 7:10pm

Sun Sep 25, 6:10pm

Sun Sep 25, 5:10pm

Sun Sep 25, 4:10pm

Sun Sep 25, 3:10pm

Sun Sep 25, 2:10pm

Sun Sep 25, 1:10pm

Sun Sep 25, 12:10pm

Sun Sep 25, 11:10am

Sun Sep 25, 10:10am

Sun Sep 25, 9:10am

Sun Sep 25, 8:10am

Sun Sep 25, 7:10am

Sun Sep 25, 6:10am

Sun Sep 25, 5:10am

Sun Sep 25, 4:10am

Sun Sep 25, 3:10am

Sun Sep 25, 2:10am

Sun Sep 25, 1:10am

Sun Sep 25, 12:10am

Sat Sep 24, 10:10pm

Sat Sep 24, 9:10pm

Sat Sep 24, 8:10pm

Sat Sep 24, 7:10pm

Sat Sep 24, 6:10pm

Sat Sep 24, 5:10pm

Sat Sep 24, 4:10pm

Sat Sep 24, 3:10pm

Sat Sep 24, 2:10pm

Sat Sep 24, 1:10pm

Sat Sep 24, 12:10pm

Sat Sep 24, 11:10am

Sat Sep 24, 10:10am

Sat Sep 24, 9:10am

Sat Sep 24, 8:10am

Sat Sep 24, 7:10am

Sat Sep 24, 6:10am

Sat Sep 24, 5:10am

Sat Sep 24, 4:10am

Sat Sep 24, 3:10am

Sat Sep 24, 2:10am

Sat Sep 24, 1:10am

Sat Sep 24, 12:10am

Fri Sep 23, 11:10pm

Fri Sep 23, 10:10pm

Fri Sep 23, 9:10pm

Fri Sep 23, 8:10pm

Fri Sep 23, 7:10pm

Fri Sep 23, 6:10pm

Fri Sep 23, 5:10pm

Fri Sep 23, 4:10pm

Fri Sep 23, 3:10pm

Fri Sep 23, 2:10pm

Fri Sep 23, 1:10pm

Fri Sep 23, 12:10pm

Fri Sep 23, 11:10am

Fri Sep 23, 10:10am

Fri Sep 23, 9:10am

Fri Sep 23, 8:10am

Fri Sep 23, 7:10am

Fri Sep 23, 6:10am

Fri Sep 23, 5:10am

Fri Sep 23, 4:10am

Fri Sep 23, 3:10am

Fri Sep 23, 2:10am

Fri Sep 23, 1:10am

Fri Sep 23, 12:10am

Thu Sep 22, 11:10pm

Thu Sep 22, 10:10pm

Thu Sep 22, 9:10pm

Thu Sep 22, 8:10pm

Thu Sep 22, 7:10pm

Thu Sep 22, 6:10pm

Thu Sep 22, 5:10pm

Thu Sep 22, 4:10pm

Thu Sep 22, 3:10pm

Thu Sep 22, 2:10pm

Thu Sep 22, 1:10pm

Thu Sep 22, 12:10pm

Thu Sep 22, 11:10am

Thu Sep 22, 10:10am

Thu Sep 22, 9:10am

Thu Sep 22, 8:10am

Thu Sep 22, 7:10am

Thu Sep 22, 6:10am

Thu Sep 22, 5:10am

Thu Sep 22, 4:10am

Meta data:

ID: 5ec20d75-57fa-41b5-b09a-911ce94cbc05
Link: https://api.weather.gov/products/5ec20d75-57fa-41b5-b09a-911ce94cbc05